TimeEST,TemperatureF,Dew PointF,Humidity,Sea Level PressureIn,VisibilityMPH,Wind Direction,Wind SpeedMPH,Gust SpeedMPH,PrecipitationIn,Events,Conditions,WindDirDegrees,DateUTC
12:53 AM,44.1,39.9,85,29.87,1.2,NE,5.8,-,0.02,Rain,Light Rain,50,2012-12-08 05:53:00
1:53 AM,44.1,39.9,85,29.86,1.5,NE,5.8,-,0.01,,Overcast,50,2012-12-08 06:53:00
2:10 AM,44.6,39.2,81,29.85,2.0,ENE,5.8,-,0.00,Rain,Light Rain,60,2012-12-08 07:10:00
2:45 AM,44.6,39.2,81,29.84,2.5,NE,6.9,-,0.00,Rain,Light Rain,50,2012-12-08 07:45:00
2:53 AM,44.1,39.9,85,29.84,3.0,NE,6.9,-,0.00,Rain,Light Rain,50,2012-12-08 07:53:00
3:53 AM,44.1,39.9,85,29.84,4.0,NNE,5.8,-,0.01,Rain,Light Rain,30,2012-12-08 08:53:00
4:53 AM,44.1,39.9,85,29.83,2.5,NE,4.6,-,0.01,Rain,Light Rain,50,2012-12-08 09:53:00
5:09 AM,44.6,39.2,81,29.82,3.0,NE,4.6,-,0.01,Rain,Light Rain,50,2012-12-08 10:09:00
5:32 AM,44.6,39.2,81,29.83,2.5,North,5.8,-,0.02,Rain,Light Rain,10,2012-12-08 10:32:00
5:53 AM,44.1,39.9,85,29.83,2.5,NNE,6.9,-,0.05,Rain,Light Rain,20,2012-12-08 10:53:00
6:13 AM,44.6,39.2,81,29.82,3.0,NNE,4.6,-,0.01,Rain,Light Rain,30,2012-12-08 11:13:00
6:34 AM,44.6,39.2,81,29.84,2.5,North,4.6,-,0.01,Rain,Light Rain,360,2012-12-08 11:34:00
6:42 AM,44.6,39.2,81,29.84,3.0,North,5.8,-,0.02,Rain,Light Rain,10,2012-12-08 11:42:00
6:49 AM,44.6,39.2,81,29.84,2.5,NNE,5.8,-,0.02,Rain,Light Rain,30,2012-12-08 11:49:00
6:53 AM,44.1,39.9,85,29.84,2.5,NNE,5.8,-,0.03,Rain,Light Rain,30,2012-12-08 11:53:00
7:07 AM,44.6,39.2,81,29.83,3.0,NE,6.9,-,0.00,Rain,Light Rain,40,2012-12-08 12:07:00
7:53 AM,44.1,39.9,85,29.84,4.0,NE,4.6,-,0.00,,Overcast,50,2012-12-08 12:53:00
8:53 AM,43.0,39.0,86,29.86,8.0,NE,9.2,-,0.01,,Overcast,40,2012-12-08 13:53:00
9:53 AM,42.1,37.9,85,29.89,5.0,North,9.2,-,0.02,Rain,Light Rain,360,2012-12-08 14:53:00
10:00 AM,42.8,37.4,81,29.89,7.0,North,8.1,-,0.00,Rain,Light Rain,360,2012-12-08 15:00:00
10:53 AM,41.0,36.0,82,29.91,10.0,North,11.5,-,0.02,Rain,Light Rain,350,2012-12-08 15:53:00
11:00 AM,41.0,35.6,81,29.91,10.0,North,10.4,-,0.00,,Overcast,360,2012-12-08 16:00:00
11:08 AM,41.0,35.6,81,29.91,10.0,North,11.5,-,0.00,,Overcast,360,2012-12-08 16:08:00
11:53 AM,39.9,35.1,83,29.92,9.0,North,9.2,-,0.00,,Overcast,360,2012-12-08 16:53:00
12:53 PM,39.0,34.0,82,29.92,6.0,North,10.4,-,N/A,,Haze,360,2012-12-08 17:53:00
1:53 PM,39.9,33.1,77,29.94,10.0,North,10.4,-,N/A,,Overcast,360,2012-12-08 18:53:00
2:53 PM,39.9,34.0,79,29.97,10.0,North,9.2,-,N/A,,Overcast,350,2012-12-08 19:53:00
3:10 PM,39.2,33.8,81,29.98,10.0,North,10.4,-,N/A,,Overcast,360,2012-12-08 20:10:00
3:53 PM,39.9,33.1,77,30.01,10.0,North,8.1,-,N/A,,Overcast,350,2012-12-08 20:53:00
4:03 PM,39.2,33.8,81,30.00,10.0,North,9.2,-,N/A,,Overcast,350,2012-12-08 21:03:00
4:53 PM,39.0,32.0,76,30.04,10.0,North,6.9,-,N/A,,Overcast,350,2012-12-08 21:53:00
5:00 PM,39.2,32.0,75,30.04,10.0,North,8.1,-,N/A,,Overcast,350,2012-12-08 22:00:00
5:53 PM,39.0,30.9,73,30.07,10.0,North,9.2,-,N/A,,Overcast,350,2012-12-08 22:53:00
6:53 PM,37.0,30.0,76,30.11,10.0,North,10.4,-,N/A,,Overcast,10,2012-12-08 23:53:00
7:12 PM,37.4,30.2,75,30.10,10.0,North,8.1,-,N/A,,Overcast,350,2012-12-09 00:12:00
7:53 PM,37.0,30.0,76,30.12,10.0,NNE,6.9,-,N/A,,Overcast,30,2012-12-09 00:53:00
8:53 PM,37.0,28.9,73,30.15,10.0,NNE,6.9,-,N/A,,Overcast,20,2012-12-09 01:53:00
9:17 PM,37.4,30.2,75,30.13,10.0,NNE,6.9,-,N/A,,Overcast,30,2012-12-09 02:17:00
9:53 PM,37.0,28.9,73,30.15,10.0,NNE,9.2,-,N/A,,Overcast,30,2012-12-09 02:53:00
10:53 PM,37.0,28.9,73,30.17,10.0,NE,6.9,-,N/A,,Overcast,40,2012-12-09 03:53:00
11:53 PM,37.0,28.9,73,30.18,10.0,Calm,Calm,-,N/A,,Overcast,0,2012-12-09 04:53:00